This is the latest recevied weather packets stored in our database for station/object W6ORV. If no packets are shown the sender has not sent any weather packets the latest 10 day(s).
| Time | Temp. | Humidity | Pressure | Rain* | Wind** | Luminosity | Snow |
|---|---|---|---|---|---|---|---|
| 1778168232 | 16.11° C | 80% | 4303 hPa | 0 mm | - | 321 W/m² | - |
| 1778167929 | 15.56° C | 82% | 4302.7 hPa | 0 mm | - | 301 W/m² | - |
| 1778167626 | 15° C | 84% | 4302.9 hPa | 0 mm | - | 296 W/m² | - |
| 1778167321 | 14.44° C | 86% | 4303 hPa | 0 mm | - | 275 W/m² | - |
| 1778167018 | 13.33° C | 89% | 4303 hPa | 0 mm | - | 251 W/m² | - |
| 1778166714 | 13.33° C | 90% | 4303.1 hPa | 0 mm | - | 238 W/m² | - |
| 1778166411 | 12.78° C | 92% | 4303.1 hPa | 0 mm | - | 187 W/m² | - |
| 1778166108 | 12.22° C | 94% | 4303.1 hPa | 0 mm | - | 180 W/m² | - |
| 1778165804 | 11.67° C | 95% | 4303 hPa | 0 mm | - | 148 W/m² | - |
| 1778165501 | 11.11° C | 95% | 4303.2 hPa | 0 mm | - | 132 W/m² | - |
| 1778165197 | 10.56° C | 96% | 4303.1 hPa | 0 mm | - | 123 W/m² | - |
| 1778164896 | 10.56° C | 96% | 4303.2 hPa | 0 mm | - | 144 W/m² | - |
| 1778164592 | 10.56° C | 97% | 4303 hPa | 0 mm | - | 99 W/m² | - |
| 1778164289 | 10.56° C | 97% | 4303.1 hPa | 0 mm | - | 89 W/m² | - |
| 1778163985 | 10° C | 97% | 4303 hPa | 0 mm | - | 83 W/m² | - |
| 1778163682 | 10° C | 97% | 4303.1 hPa | 0 mm | - | 70 W/m² | - |
| 1778163378 | 9.44° C | 97% | 4303.1 hPa | 0 mm | - | 43 W/m² | - |
| 1778163075 | 9.44° C | 97% | 4303.1 hPa | 0 mm | - | 39 W/m² | - |
| 1778162771 | 9.44° C | 97% | 4303 hPa | 0 mm | - | 37 W/m² | - |
| 1778162469 | 9.44° C | 98% | 4303 hPa | 0 mm | - | 34 W/m² | - |
| 1778162166 | 9.44° C | 98% | 4303.1 hPa | 0 mm | - | 33 W/m² | - |
| 1778161863 | 9.44° C | 98% | 4302.9 hPa | 0 mm | - | 28 W/m² | - |
| 1778161559 | 9.44° C | 98% | 4303 hPa | 0 mm | - | 27 W/m² | - |
| 1778161255 | 9.44° C | 98% | 4302.9 hPa | 0 mm | - | 23 W/m² | - |
| 1778160951 | 8.89° C | 98% | 4303 hPa | 0 mm | - | 20 W/m² | - |
* Rain latest hour (hover to see other rain measurements)
** Current wind speed in m/s (hover to see current wind gust speed)